Weather History for Scottsboro, AL

Change the Weather History Date:

Monday, March 11, 2013

  Actual Average (KHSV) Record (KHSV)
Temperature  
Mean Temperature 52 °F 52 °F  
Max Temperature 64 °F 63 °F 84 °F (1911)
Min Temperature 39 °F 41 °F 19 °F (1969)
Degree Days  
Heating Degree Days 14 13  
Month to date heating degree days 158  
Since 1 July heating degree days 2610  
Cooling Degree Days 0 0  
Month to date cooling degree days 0  
Year to date cooling degree days 1  
Growing Degree Days 2 (Base 50)    
Moisture  
Dew Point 45 °F    
Average Humidity 78    
Maximum Humidity 100    
Minimum Humidity 42    
Precipitation  
Precipitation 0.84 in 0.17 in 3.76 in (1963)
Month to date precipitation 1.83  
Year to date precipitation 11.56  
Snow  
Snow 0.00 in - - ()
Month to date snowfall  
Since 1 July snowfall  
Snow Depth -    
Sea Level Pressure  
Sea Level Pressure 29.89 in    
Wind  
Wind Speed 8 mph (SW)    
Max Wind Speed 16 mph    
Max Gust Speed 29 mph    
T = Trace of Precipitation, MM = Missing Value Source: NWS Daily Summary

Daily Weather History Graph

Daily Weather History Graph

Search for Another Location

Airport:

Trip Planner

Search our weather history database for the weather conditions in past years. The results will help you decide how hot, cold, wet, or windy it might be!

Date:

Astronomy

Mar. 11, 2013 Rise Set
Actual Time 6:59 AM CDT 6:48 PM CDT
Civil Twilight 6:34 AM CDT 7:13 PM CDT
Nautical Twilight 6:05 AM CDT 7:43 PM CDT
Astronomical Twilight 5:36 AM CDT 8:12 PM CDT
Moon 6:34 AM CDT (3/11) 6:57 PM CDT (3/11)
Length of Visible Light 12h 39m
Length of Day
11h 48m
Waning Crescent, 0% of the Moon is Illuminated
Mar 11
Waning Crescent
Mar 11
New
Mar 19
First Quarter
Mar 27
Full
Apr 2
Last Quarter

Hourly Weather History & Observations

Time (CDT) Temp. Windchill Dew Point Humidity Pressure Visibility Wind Dir Wind Speed Gust Speed Precip Events Conditions
12:15 AM 64.4 °F - 41.0 °F 42% 29.96 in - South 11.5 mph 19.6 mph N/A   Overcast
12:35 AM 64.4 °F - 42.8 °F 45% 29.95 in - South 8.1 mph - N/A   Scattered Clouds
12:55 AM 64.4 °F - 42.8 °F 45% 29.94 in - South 10.4 mph 21.9 mph N/A   Clear
1:15 AM 64.4 °F - 44.6 °F 49% 29.94 in - South 9.2 mph 23.0 mph N/A   Clear
1:55 AM 62.6 °F - 44.6 °F 52% 29.93 in - South 9.2 mph 21.9 mph N/A   Clear
2:15 AM 62.6 °F - 42.8 °F 48% 29.92 in - SSW 5.8 mph - N/A   Clear
2:35 AM 62.6 °F - 44.6 °F 52% 29.93 in - South 11.5 mph 17.3 mph N/A   Clear
2:55 AM 62.6 °F - 44.6 °F 52% 29.94 in - South 10.4 mph 16.1 mph N/A   Partly Cloudy
3:15 AM 60.8 °F - 42.8 °F 52% 29.91 in - South 9.2 mph 19.6 mph N/A   Scattered Clouds
3:35 AM 60.8 °F - 42.8 °F 52% 29.89 in - South 8.1 mph 18.4 mph N/A   Mostly Cloudy
3:55 AM 60.8 °F - 44.6 °F 55% 29.87 in - South 12.7 mph 28.8 mph N/A   Overcast
4:15 AM 60.8 °F - 44.6 °F 55% 29.86 in - South 13.8 mph 23.0 mph N/A   Overcast
4:35 AM 59.0 °F - 44.6 °F 59% 29.88 in - SSW 9.2 mph - N/A   Overcast
4:55 AM 59.0 °F - 44.6 °F 59% 29.88 in - SSW 10.4 mph 21.9 mph N/A   Overcast
5:15 AM 59.0 °F - 44.6 °F 59% 29.88 in - SSW 8.1 mph 17.3 mph N/A   Overcast
5:35 AM 59.0 °F - 46.4 °F 63% 29.89 in - SSW 12.7 mph 17.3 mph N/A   Overcast
5:55 AM 59.0 °F - 46.4 °F 63% 29.89 in - SW 11.5 mph 20.7 mph N/A   Overcast
6:15 AM 59.0 °F - 46.4 °F 63% 29.88 in - South 12.7 mph 18.4 mph N/A Rain Light Rain
6:35 AM 59.0 °F - 48.2 °F 67% 29.87 in - South 6.9 mph - N/A Rain Light Rain
6:55 AM 59.0 °F - 48.2 °F 67% 29.85 in - SSW 6.9 mph 20.7 mph N/A   Overcast
7:15 AM 59.0 °F - 48.2 °F 67% 29.84 in - SSW 10.4 mph - N/A   Overcast
7:35 AM 57.2 °F - 50.0 °F 77% 29.84 in - South 6.9 mph 16.1 mph 0.01 in Rain Light Rain
7:55 AM 59.0 °F - 50.0 °F 72% 29.83 in - SSW 16.1 mph 25.3 mph 0.01 in Rain Light Rain
8:15 AM 57.2 °F - 50.0 °F 77% 29.84 in - SW 8.1 mph 19.6 mph 0.02 in Rain Light Rain
8:35 AM 57.2 °F - 50.0 °F 77% 29.83 in - SSW 8.1 mph - 0.03 in   Overcast
8:55 AM 57.2 °F - 50.0 °F 77% 29.85 in - SSW 10.4 mph 21.9 mph 0.03 in Rain Light Rain
9:15 AM 55.4 °F - 53.6 °F 94% 29.89 in - WSW 8.1 mph - 0.11 in Rain Heavy Rain
9:35 AM 55.4 °F - 53.6 °F 94% 29.88 in - WSW 4.6 mph - 0.19 in Rain Rain
9:55 AM 53.6 °F - 53.6 °F 100% 29.88 in - SW 5.8 mph - 0.25 in Rain Rain
10:15 AM 53.6 °F - 53.6 °F 100% 29.90 in - SW 4.6 mph - 0.08 in Rain Rain
10:35 AM 53.6 °F - 53.6 °F 100% 29.89 in - SSE 5.8 mph - 0.12 in Rain Light Rain
10:55 AM 53.6 °F - 53.6 °F 100% 29.88 in - SW 4.6 mph - 0.16 in Rain Light Rain
11:15 AM 53.6 °F - 53.6 °F 100% 29.89 in - SSW 3.5 mph - 0.04 in Rain Rain
11:35 AM 53.6 °F - 53.6 °F 100% 29.88 in - South 3.5 mph - 0.09 in Rain Light Rain
11:55 AM 53.6 °F - 53.6 °F 100% 29.87 in - South 4.6 mph - 0.11 in Rain Light Rain
12:15 PM 53.6 °F - 53.6 °F 100% 29.89 in - SSW 8.1 mph - 0.02 in Rain Light Rain
12:35 PM 53.6 °F - 53.6 °F 100% 29.87 in - South 5.8 mph - 0.05 in Rain Light Rain
12:55 PM 53.6 °F - 53.6 °F 100% 29.86 in - Calm Calm - 0.07 in Rain Light Rain
1:15 PM 53.6 °F - 53.6 °F 100% 29.84 in - Calm Calm - 0.02 in Rain Light Rain
1:35 PM 55.4 °F - 53.6 °F 94% 29.84 in - Calm Calm - 0.06 in Rain Rain
1:55 PM 53.6 °F - 53.6 °F 100% 29.83 in - South 3.5 mph - 0.11 in Rain Light Rain
2:15 PM 55.4 °F - 53.6 °F 94% 29.81 in - South 8.1 mph - 0.03 in Rain Light Rain
2:35 PM 53.6 °F - 53.6 °F 100% 29.82 in - SW 8.1 mph 18.4 mph 0.09 in Rain Light Rain
2:55 PM 50.0 °F - 48.2 °F 94% 29.81 in - West 11.5 mph 18.4 mph 0.10 in Rain Light Rain
3:15 PM 50.0 °F - 46.4 °F 87% 29.83 in - West 11.5 mph 16.1 mph N/A Rain Light Rain
3:35 PM 48.2 °F - 46.4 °F 93% 29.82 in - West 4.6 mph - N/A   Unknown
3:55 PM 48.2 °F - 46.4 °F 93% 29.84 in - WSW 6.9 mph - N/A   Overcast
4:15 PM 46.4 °F 42.9 °F 44.6 °F 93% 29.85 in - WSW 6.9 mph - N/A   Overcast
4:35 PM 46.4 °F 42.9 °F 42.8 °F 87% 29.86 in - West 6.9 mph - N/A   Overcast
4:55 PM 46.4 °F 41.9 °F 42.8 °F 87% 29.87 in - West 9.2 mph - N/A   Unknown
5:15 PM 48.2 °F - 41.0 °F 76% 29.87 in - WSW 5.8 mph - N/A   Overcast
5:35 PM 48.2 °F - 42.8 °F 82% 29.87 in - West 8.1 mph - N/A   Overcast
5:55 PM 48.2 °F - 42.8 °F 82% 29.87 in - NW 6.9 mph - N/A   Overcast
6:15 PM 48.2 °F - 41.0 °F 76% 29.88 in - West 6.9 mph - N/A   Mostly Cloudy
6:35 PM 48.2 °F - 41.0 °F 76% 29.89 in - WNW 5.8 mph - N/A   Mostly Cloudy
6:55 PM 46.4 °F 42.4 °F 39.2 °F 76% 29.90 in - West 8.1 mph - N/A   Overcast
7:15 PM 44.6 °F 40.7 °F 37.4 °F 76% 29.90 in - WNW 6.9 mph - N/A   Mostly Cloudy
7:35 PM 44.6 °F 41.4 °F 37.4 °F 76% 29.91 in - West 5.8 mph - N/A   Scattered Clouds
7:55 PM 44.6 °F 43.1 °F 37.4 °F 76% 29.92 in - West 3.5 mph - N/A   Partly Cloudy
8:15 PM 42.8 °F 41.1 °F 37.4 °F 81% 29.93 in - West 3.5 mph - N/A   Mostly Cloudy
8:35 PM 41.0 °F 39.0 °F 37.4 °F 87% 29.93 in - West 3.5 mph - N/A   Unknown
8:55 PM 41.0 °F - 37.4 °F 87% 29.93 in - Calm Calm - N/A   Unknown
9:15 PM 41.0 °F - 37.4 °F 87% 29.94 in - Calm Calm - N/A   Unknown
9:35 PM 39.2 °F - 35.6 °F 87% 29.95 in - Calm Calm - N/A   Unknown
9:55 PM 41.0 °F 39.0 °F 37.4 °F 87% 29.95 in - WNW 3.5 mph - N/A   Overcast
10:15 PM 42.8 °F 38.6 °F 35.6 °F 76% 29.96 in - NNW 6.9 mph - N/A   Overcast
10:35 PM 42.8 °F 37.5 °F 35.6 °F 76% 29.96 in - NNW 9.2 mph - N/A   Overcast
11:15 PM 41.0 °F 39.0 °F 33.8 °F 76% 29.97 in - NNW 3.5 mph - N/A   Overcast
11:35 PM 39.2 °F 37.0 °F 33.8 °F 81% 29.97 in - NNW 3.5 mph - N/A   Overcast
11:55 PM 39.2 °F 37.0 °F 32.0 °F 75% 29.97 in - NW 3.5 mph - N/A   Overcast